Terminal Aerodrome Forecast
Issued by NWS

Home | Current Version | Previous Version | Text Only | Print | Product List | Glossary On
Versions: 1 2 3 4 5 6 7 8 9 10 11 12 13 14 15 16 17 18 19 20 21 22 23 24 25 26 27
000
FTPA31 PHFO 202300
TAFMKK
TAF
PHMK 202338Z 2100/2124 16008KT P6SM SCT030 SCT060
     FM210300 VRB03KT P6SM FEW030
     FM212100 16008KT P6SM SCT030 SCT050=

USA.gov is the U.S. government's official web portal to all federal, state and local government web resources and services.